This demonstration page uses our WeatherBlox Daily Observations layout. Learn more.

Left ArrowRight Arrow

Hourly Observations for July 24, 2018

Temp ( °F °C ) Dew Point ( °F °C ) Humidity (%) Winds ( mph kmh ) Pressure ( in mb ) Visibility ( mi km ) Precip ( " mm )
12:53 am 00:53 Clear 63 17.2 60 15.6 90 90 Calm 30.17 1022 10 16 0.00 0.00
1:53 am 01:53 Clear 60 15.6 58 14.4 93 93 Calm 30.17 1022 10 16 0.00 0.00
2:53 am 02:53 Clear 59 15 57 13.9 93 93 Calm 30.16 1022 10 16 0.00 0.00
3:53 am 03:53 Clear 58 14.4 57 13.9 97 97 WNW 6 9 30.17 1022 10 16 0.00 0.00
4:53 am 04:53 Clear 58 14.4 56 13.3 93 93 Calm 30.18 1022 10 16 0.00 0.00
5:53 am 05:53 Clear 59 15 56 13.3 90 90 Calm 30.19 1023 10 16 0.00 0.00
6:53 am 06:53 Sunny 58 14.4 56 13.3 93 93 Calm 30.20 1023 10 16 0.00 0.00
7:53 am 07:53 Sunny 63 17.2 60 15.6 90 90 Calm 30.21 1023 10 16 0.00 0.00
8:53 am 08:53 Sunny 69 20.6 62 16.7 78 78 Calm 30.22 1023 10 16 0.00 0.00
9:53 am 09:53 Sunny 75 23.9 60 15.6 60 60 Calm 30.22 1024 10 16 0.00 0.00
10:53 am 10:53 Sunny 77 25 59 15 54 54 W 5 7 30.22 1023 10 16 0.00 0.00
11:53 am 11:53 Sunny 79 26.1 58 14.4 49 49 ESE 5 7 30.21 1023 10 16 0.00 0.00
12:53 pm 12:53 Sunny 82 27.8 58 14.4 44 44 ENE 7 11 30.19 1022 10 16 0.00 0.00
1:53 pm 13:53 Sunny 83 28.3 61 16.1 48 48 E 8 13 30.18 1022 10 16 0.00 0.00
2:53 pm 14:53 Mostly Sunny 82 27.8 60 15.6 47 47 ESE 7 11 30.17 1022 10 16 0.00 0.00
3:53 pm 15:53 Partly Cloudy 82 27.8 61 16.1 49 49 VRB 3 6 30.16 1022 10 16 0.00 0.00
4:53 pm 16:53 Cloudy 82 27.8 62 16.7 51 51 Calm 30.16 1021 10 16 0.00 0.00
5:53 pm 17:53 Partly Cloudy 83 28.3 63 17.2 51 51 E 5 7 30.15 1021 10 16 0.00 0.00
6:53 pm 18:53 Sunny 81 27.2 62 16.7 53 53 SE 9 15 30.13 1020 10 16 0.00 0.00
7:53 pm 19:53 Sunny 80 26.7 60 15.6 51 51 SE 8 13 30.12 1020 10 16 0.00 0.00
8:53 pm 20:53 Sunny 76 24.4 64 17.8 67 67 SE 7 11 30.13 1020 10 16 0.00 0.00
9:53 pm 21:53 Clear 74 23.3 63 17.2 69 69 SE 8 13 30.13 1020 10 16 0.00 0.00
10:53 pm 22:53 Clear 73 22.8 63 17.2 71 71 SE 6 9 30.13 1020 10 16 0.00 0.00
11:53 pm 23:53 Clear 72 22.2 63 17.2 73 73 SE 8 13 30.14 1021 10 16 0.00 0.00

Powered by AerisWeather